Orbital Elements at Epoch 2459200.5 (2020-Dec-17.0) TDB
Reference: JPL 16 (heliocentric ecliptic J2000)
Element | Value | Uncertainty (1-sigma) | Units |
e | .05439389608426405 | 4.3169e-08 | |
a | 2.537412518694833 | 1.7514e-08 | au |
q | 2.399392765830036 | 1.1325e-07 | au |
i | 2.512571160558826 | 5.6336e-06 | deg |
node | 29.59641456379701 | 0.00010156 | deg |
peri | 69.5771281273985 | 0.00011536 | deg |
M | 237.0349298816525 | 5.5647e-05 | deg |
tp | 2459704.771362294655 (2022-May-05.27136229) | 0.00023039 | TDB |
period | 1476.335436163743 4.04 | 1.5285e-05 4.185e-08 | d yr |
n | .2438470222834045 | 2.5247e-09 | deg/d |
Q | 2.675432271559631 | 1.8467e-08 | au |
|
| | Orbit Determination Parameters
Additional Information
|